User: anonymous   Login
Location: Cicognara
(44.9500°N, 10.4667°E)
Time: 02:22:32
(UTC+00:00)
Language:

Meteor 2-1 Rocket - Orbit

View from above orbital plane
View from above orbital plane
View from above satellite
View from above satellite

Ground track
Ground track

The orbit data is extracted from the following two-line orbital elements,

1 08027U 75064B   21264.54008437  .00000014  00000-0  91594-6 0  9994
2 08027  81.3013 355.6399 0053610 188.9380 171.0841 14.07371272371251
Epoch (UTC): 21 September 2021 12:57:43
Eccentricity: 0.0053610
inclination: 81.3013°
perigee height: 829 km
apogee height: 907 km
right ascension of ascending node: 355.6399°
argument of perigee: 188.9380°
revolutions per day: 14.07371272
mean anomaly at epoch: 171.0841°
orbit number at epoch: 37125

The dashed part of the orbit path shows where the satellite is in the earth's shadow,  

DLR